Change the Weather History Date:

Thursday, September 5, 2013

  Actual Average Record
Temperature  
Mean Temperature 76 °F -  
Max Temperature 91 °F 82 °F 93 °F (1967)
Min Temperature 62 °F 47 °F 36 °F (1999)
Cooling Degree Days 12    
Growing Degree Days 26 (Base 50)    
Moisture  
Dew Point 54 °F    
Average Humidity 54    
Maximum Humidity 86    
Minimum Humidity 23    
Precipitation  
Precipitation 0.00 in - - ()
Sea Level Pressure  
Sea Level Pressure 29.96 in    
Wind  
Wind Speed 4 mph (North)    
Max Wind Speed 13 mph    
Max Gust Speed 16 mph    
Visibility 10 miles    
Events      
Averages and records for this station are not official NWS values.
T = Trace of Precipitation, MM = Missing Value Source: NWS Daily Summary

Daily Weather History Graph

Daily Weather History Graph

Search for Another Location

Airport or City:

Trip Planner

Search our weather history database for the weather conditions in past years. The results will help you decide how hot, cold, wet, or windy it might be!

Date:

Astronomy

Sep. 05, 2013 Rise Set
Actual Time 6:57 AM MDT 7:53 PM MDT
Civil Twilight 6:29 AM MDT 8:21 PM MDT
Nautical Twilight 5:55 AM MDT 8:55 PM MDT
Astronomical Twilight 5:20 AM MDT 9:30 PM MDT
Moon 7:14 AM MDT (9/5) 7:45 PM MDT (9/5)
Length of Visible Light 13h 52m
Length of Day
12h 55m
New Moon, 0% of the Moon is Illuminated
Sep 5
New Moon
Sep 12
First Quarter
Sep 19
Full
Sep 26
Last Quarter
Oct 4
New

Hourly Weather History & Observations

Time (MDT) Temp. Heat Index Dew Point Humidity Pressure Visibility Wind Dir Wind Speed Gust Speed Precip Events Conditions
12:51 AM 64.9 °F - 59.0 °F 81% 30.00 in 10.0 mi Calm Calm - N/A   Clear
1:51 AM 63.0 °F - 57.0 °F 81% 30.00 in 10.0 mi NNE 3.5 mph - N/A   Clear
2:51 AM 64.9 °F - 57.0 °F 75% 29.98 in 10.0 mi NW 4.6 mph - N/A   Clear
3:51 AM 64.9 °F - 55.9 °F 73% 29.98 in 10.0 mi Calm Calm - N/A   Clear
4:51 AM 62.1 °F - 57.0 °F 84% 29.99 in 10.0 mi WNW 9.2 mph - N/A   Partly Cloudy
5:51 AM 62.1 °F - 57.0 °F 84% 29.99 in 10.0 mi NNW 3.5 mph - N/A   Clear
6:51 AM 62.1 °F - 57.0 °F 84% 29.99 in 10.0 mi NNE 3.5 mph - N/A   Clear
7:51 AM 62.1 °F - 57.9 °F 86% 30.01 in 10.0 mi NNW 4.6 mph - N/A   Partly Cloudy
8:51 AM 64.0 °F - 57.9 °F 80% 30.03 in 10.0 mi NW 5.8 mph - N/A   Scattered Clouds
9:51 AM 75.0 °F - 55.0 °F 50% 30.01 in 10.0 mi NNE 3.5 mph - N/A   Clear
10:51 AM 80.1 °F 79.9 °F 53.1 °F 39% 30.00 in 10.0 mi North 5.8 mph - N/A   Clear
11:51 AM 81.0 °F - 52.0 °F 36% 30.00 in 10.0 mi Calm Calm - N/A   Clear
12:51 PM 84.9 °F 83.2 °F 53.1 °F 33% 29.98 in 10.0 mi NNW 5.8 mph - N/A   Clear
1:51 PM 87.1 °F - 52.0 °F 30% 29.97 in 10.0 mi NW 4.6 mph - N/A   Clear
2:51 PM 90.0 °F - 48.9 °F 24% 29.94 in 10.0 mi SE 6.9 mph - N/A   Clear
3:51 PM 91.0 °F - 48.0 °F 23% 29.91 in 10.0 mi SW 12.7 mph 16.1 mph N/A   Clear
4:51 PM 90.0 °F - 48.9 °F 24% 29.91 in 10.0 mi SSW 10.4 mph - N/A   Clear
5:51 PM 90.0 °F - 50.0 °F 25% 29.89 in 10.0 mi SSW 8.1 mph - N/A   Clear
6:51 PM 88.0 °F - 52.0 °F 29% 29.88 in 10.0 mi Calm Calm - N/A   Clear
7:51 PM 82.9 °F 81.9 °F 54.0 °F 37% 29.88 in 10.0 mi ESE 3.5 mph - N/A   Clear
8:51 PM 77.0 °F - 53.1 °F 43% 29.90 in 10.0 mi East 9.2 mph - N/A   Clear
9:51 PM 73.0 °F - 55.0 °F 53% 29.91 in 10.0 mi NNW 3.5 mph - N/A   Clear
10:51 PM 73.0 °F - 55.0 °F 53% 29.90 in 10.0 mi SE 8.1 mph - N/A   Clear
11:51 PM 66.0 °F - 57.9 °F 75% 29.92 in 10.0 mi NE 3.5 mph - N/A   Clear